Regional Weather Roundup
Issued by NWS New Orleans/Baton Rouge, LA

Home | Current Version | Previous Version | Graphics & Text | Print | Product List | Glossary On
Versions: 1 2 3 4 5 6 7 8 9 10 11 12 13 14 15 16 17 18 19 20 21 22 23 24 25 26 27 28 29 30 31 32 33 34 35 36 37 38 39 40 41 42 43 44 45 46 47 48 49 50
539
ASUS44 KLIX 241501
RWRLIX
NEW ORLEANS REGIONAL WEATHER ROUNDUP
NATIONAL WEATHER SERVICE NEW ORLEANS LA
1000 AM CDT THU APR 24 2014

NOTE: "FAIR" INDICATES FEW OR NO CLOUDS BELOW 12,000 FEET WITH NO
      SIGNIFICANT WEATHER AND/OR OBSTRUCTIONS TO VISIBILITY.
      SKY/WX - SKY CONDITION AND SIGNIFICANT WEATHER.
      TMP - AIR TEMPERATURE.     DP    - DEWPOINT TEMPERATURE.
      RH  - RELATIVE HUMIDITY.   PRES  - PRESSURE.
      HI  - HEAT INDEX.          WCI   - WIND CHILL INDEX.

*  THESE STATIONS ARE NOT NWS OR FAA STATIONS AND ARE NOT UNDER
   NWS QUALITY CONTROL.

LAZ038-040-048-061>063-065>067-069-241600-
SOUTHEAST LOUISIANA

CITY           SKY/WX    TMP DP  RH WIND       PRES   REMARKS
N.O. AUDUBON     N/A     78  64  61 MISG        N/A
N.O. INTL ARPT MOSUNNY   74  66  76 S8        29.99R
N.O. LAKEFRONT MOSUNNY   75  64  68 SE10      30.00R
N.O. DOWNTOWN*   N/A     75  61  60 S6        30.00R
SLIDELL        MOSUNNY   74  63  68 S7        29.99R
BATON ROUGE    PTSUNNY   71  65  81 CALM      29.98R HAZE
BOOTHVILLE     MOSUNNY   72  66  81 S5        30.01R
BELLE CHASSE   PTSUNNY   76  63  64 SE5       29.99R
BOGALUSA*        N/A     74  65  73 W3        30.01R
GALLIANO*      NOT AVBL
NEW ROADS*     NOT AVBL
GONZALES*        N/A     71  67  88 S5        29.98S
HAMMOND*       NOT AVBL
HOUMA*         PTSUNNY   75  64  69 S7        29.99R
PORT FOURCHON* MOSUNNY   73  66  78 VRB6G12   30.00R

$$

MSZ070-080>082-241600-
SOUTHERN MISSISSIPPI

CITY           SKY/WX    TMP DP  RH WIND       PRES   REMARKS
MCCOMB         MOSUNNY   69  63  81 SW6       29.99R
GULFPORT       PTSUNNY   76  65  68 W5        29.99S
BILOXI         MOSUNNY   74  67  78 SW5       30.00R
PASCAGOULA     MOSUNNY   73  65  75 CALM      29.99S
STENNIS ARPT*  PTSUNNY   61  57  88 CALM      30.00R

$$

COASTAL OBSERVATIONS
LAKE AND NEARSHORE STATIONS

STATION/POSITION TIME  TEMP    WIND        PRES    WAVE
                       AIR SEA DIR/SP/G            HT/PER
                 (UTC) (F)     (DEG/KT/KT) (MB)    (FT/S)
PASCAGOULA       1400   72     180/  4/  5 1015.0
WAVELAND YACHT   1400   71 74  150/  7/  8 1014.9
GRAND ISLE       1400   72 73  160/  5/  7 1015.9
SOUTHWEST PASS   1400   70 60  150/  2/  3 1016.0
NEW CANAL        1400   73 70   CALM  /  2 1015.7
SHELL BEACH      1400   72 68  160/  4/  5 1015.4

OFFSHORE STATIONS

STATION/POSITION TIME  TEMP    WIND        PRES    WAVE
                       AIR SEA DIR/SP/G            HT/PER
                 (UTC) (F)     (DEG/KT/KT) (MB)    (FT/S)
64 S DAUPHIN ISL 1444   70 72  160/  6/  8 1016.1

$$




USA.gov is the U.S. government's official web portal to all federal, state and local government web resources and services.